Weather History for Nebraska City, NE

Change the Weather History Date:

Tuesday, October 9, 2012

  Actual Average (KSDA) Record (KSDA)
Temperature  
Mean Temperature 48 °F -  
Max Temperature 58 °F 66 °F 88 °F (1980)
Min Temperature 38 °F 42 °F 24 °F (2000)
Degree Days  
Heating Degree Days 17    
Moisture  
Dew Point 33 °F    
Average Humidity 49    
Maximum Humidity 63    
Minimum Humidity 31    
Precipitation  
Precipitation 0.00 in - - ()
Sea Level Pressure  
Sea Level Pressure 29.95 in    
Wind  
Wind Speed 12 mph (WNW)    
Max Wind Speed 22 mph    
Max Gust Speed 26 mph    
Visibility 10 miles    
Events      
Averages and records for this station are not official NWS values.
T = Trace of Precipitation, MM = Missing Value Source: NWS Daily Summary

Daily Weather History Graph

Daily Weather History Graph

Search for Another Location

Airport:

Trip Planner

Search our weather history database for the weather conditions in past years. The results will help you decide how hot, cold, wet, or windy it might be!

Date:

Astronomy

Oct. 09, 2012 Rise Set
Actual Time 7:28 AM CDT 6:51 PM CDT
Civil Twilight 7:01 AM CDT 7:19 PM CDT
Nautical Twilight 6:29 AM CDT 7:50 PM CDT
Astronomical Twilight 5:57 AM CDT 8:22 PM CDT
Moon 1:04 AM CDT (10/9) 3:21 PM CDT (10/9)
Length of Visible Light 12h 17m
Length of Day
11h 23m
Last Quarter, 36% of the Moon is Illuminated
Oct 9
Last Quarter
Oct 15
New
Oct 21
First Quarter
Oct 29
Full
Nov 6
Last Quarter

Hourly Weather History & Observations

Time (CDT) Temp. Windchill Dew Point Humidity Pressure Visibility Wind Dir Wind Speed Gust Speed Precip Events Conditions
12:15 AM 55.4 °F - 34.7 °F 46% 29.84 in 10.0 mi SSW 16.1 mph 19.6 mph N/A   Clear
12:35 AM 55.0 °F - 34.9 °F 47% 29.83 in 10.0 mi SSW 12.7 mph - N/A   Clear
12:55 AM 54.5 °F - 35.1 °F 48% 29.83 in 10.0 mi SSW 13.8 mph - N/A   Clear
1:15 AM 54.0 °F - 35.2 °F 49% 29.83 in 10.0 mi SSW 12.7 mph - N/A   Clear
1:35 AM 54.0 °F - 35.6 °F 50% 29.84 in 10.0 mi SSW 13.8 mph - N/A   Clear
1:55 AM 54.5 °F - 35.8 °F 49% 29.85 in 10.0 mi SW 8.1 mph - N/A   Clear
2:15 AM 54.9 °F - 36.3 °F 50% 29.86 in 10.0 mi SW 11.5 mph - N/A   Clear
3:15 AM 54.9 °F - 36.5 °F 50% 29.86 in 10.0 mi SW 9.2 mph - N/A   Clear
3:35 AM 54.5 °F - 36.5 °F 51% 29.85 in 10.0 mi SW 9.2 mph - N/A   Clear
3:55 AM 54.5 °F - 36.3 °F 50% 29.85 in 10.0 mi SW 9.2 mph - N/A   Clear
4:15 AM 54.5 °F - 36.5 °F 51% 29.85 in 10.0 mi SW 9.2 mph - N/A   Clear
4:35 AM 54.1 °F - 36.5 °F 51% 29.84 in 10.0 mi SSW 15.0 mph - N/A   Clear
4:55 AM 54.0 °F - 36.3 °F 51% 29.83 in 10.0 mi SSW 15.0 mph - N/A   Clear
5:15 AM 53.6 °F - 36.1 °F 52% 29.83 in 10.0 mi SSW 13.8 mph - N/A   Clear
5:35 AM 52.9 °F - 36.3 °F 53% 29.83 in 10.0 mi SSW 11.5 mph - N/A   Clear
5:55 AM 52.3 °F - 36.5 °F 55% 29.84 in 10.0 mi SSW 13.8 mph 18.4 mph N/A   Clear
6:15 AM 51.8 °F - 36.5 °F 56% 29.83 in 10.0 mi SSW 13.8 mph - N/A   Clear
6:35 AM 51.6 °F - 36.5 °F 56% 29.84 in 10.0 mi SSW 13.8 mph - N/A   Clear
6:55 AM 50.9 °F - 36.5 °F 58% 29.84 in 10.0 mi SW 13.8 mph - N/A   Clear
7:15 AM 50.2 °F - 36.5 °F 59% 29.85 in 10.0 mi SW 10.4 mph - N/A   Clear
7:35 AM 49.3 °F - 36.5 °F 61% 29.85 in 10.0 mi SW 8.1 mph - N/A   Clear
7:55 AM 49.1 °F - 36.7 °F 62% 29.86 in 10.0 mi WSW 4.6 mph - N/A   Clear
8:15 AM 49.1 °F - 36.9 °F 63% 29.87 in 10.0 mi WSW 6.9 mph - N/A   Clear
8:35 AM 50.0 °F - 37.4 °F 62% 29.88 in 10.0 mi West 6.9 mph - N/A   Clear
8:55 AM 50.5 °F - 37.0 °F 60% 29.88 in 10.0 mi WSW 5.8 mph - N/A   Clear
9:15 AM 51.3 °F - 37.2 °F 59% 29.89 in 10.0 mi West 4.6 mph - N/A   Clear
9:35 AM 52.7 °F - 37.6 °F 56% 29.89 in 10.0 mi Calm Calm - N/A   Clear
9:55 AM 53.8 °F - 37.4 °F 54% 29.89 in 10.0 mi WNW 6.9 mph - N/A   Clear
10:15 AM 54.7 °F - 38.5 °F 54% 29.90 in 10.0 mi NNW 6.9 mph - N/A   Clear
10:35 AM 55.4 °F - 39.7 °F 56% 29.91 in 10.0 mi North 10.4 mph 17.3 mph N/A   Clear
10:55 AM 55.8 °F - 40.6 °F 57% 29.92 in 10.0 mi North 17.3 mph 23.0 mph N/A   Clear
11:15 AM 56.3 °F - 41.9 °F 59% 29.93 in 10.0 mi NNE 17.3 mph 24.2 mph N/A   Clear
11:35 AM 56.5 °F - 43.3 °F 61% 29.94 in 10.0 mi NNE 17.3 mph 26.5 mph N/A   Clear
11:55 AM 57.2 °F - 43.3 °F 60% 29.95 in 10.0 mi North 15.0 mph - N/A   Mostly Cloudy
12:15 PM 57.4 °F - 42.3 °F 57% 29.95 in 10.0 mi North 19.6 mph 24.2 mph N/A   Overcast
12:35 PM 57.2 °F - 41.2 °F 55% 29.96 in 10.0 mi North 17.3 mph 24.2 mph N/A   Mostly Cloudy
12:55 PM 57.4 °F - 41.0 °F 54% 29.95 in 10.0 mi NNE 17.3 mph 23.0 mph N/A   Mostly Cloudy
1:15 PM 56.3 °F - 38.3 °F 51% 29.96 in 10.0 mi North 21.9 mph - N/A   Overcast
1:35 PM 55.6 °F - 37.4 °F 50% 29.96 in 10.0 mi North 19.6 mph 25.3 mph N/A   Mostly Cloudy
1:55 PM 55.8 °F - 37.4 °F 50% 29.96 in 10.0 mi North 16.1 mph - N/A   Scattered Clouds
2:15 PM 57.2 °F - 36.0 °F 45% 29.96 in 10.0 mi North 18.4 mph 24.2 mph N/A   Clear
2:35 PM 56.7 °F - 30.9 °F 38% 29.96 in 10.0 mi North 16.1 mph - N/A   Scattered Clouds
2:55 PM 57.4 °F - 29.5 °F 35% 29.98 in 10.0 mi North 16.1 mph 23.0 mph N/A   Scattered Clouds
3:15 PM 57.7 °F - 29.7 °F 34% 29.98 in 10.0 mi NNW 16.1 mph 21.9 mph N/A   Scattered Clouds
3:35 PM 56.7 °F - 26.2 °F 31% 29.99 in 10.0 mi North 13.8 mph - N/A   Mostly Cloudy
3:55 PM 56.5 °F - 26.2 °F 31% 29.99 in 10.0 mi NNE 16.1 mph 20.7 mph N/A   Overcast
4:15 PM 55.0 °F - 26.6 °F 33% 30.00 in 10.0 mi North 16.1 mph 21.9 mph N/A   Mostly Cloudy
4:35 PM 54.7 °F - 26.2 °F 33% 30.01 in 10.0 mi North 13.8 mph 19.6 mph N/A   Mostly Cloudy
4:55 PM 54.5 °F - 26.6 °F 34% 30.01 in 10.0 mi North 11.5 mph - N/A   Mostly Cloudy
5:15 PM 53.8 °F - 24.8 °F 33% 30.01 in 10.0 mi NNW 13.8 mph 20.7 mph N/A   Scattered Clouds
5:35 PM 53.1 °F - 25.3 °F 34% 30.02 in 10.0 mi North 11.5 mph - N/A   Scattered Clouds
5:55 PM 54.1 °F - 25.7 °F 33% 30.02 in 10.0 mi North 9.2 mph 16.1 mph N/A   Clear
6:15 PM 52.3 °F - 25.5 °F 35% 30.03 in 10.0 mi North 6.9 mph - N/A   Clear
6:35 PM 49.8 °F - 25.2 °F 38% 30.03 in 10.0 mi North 4.6 mph - N/A   Clear
6:55 PM 50.0 °F - 25.3 °F 38% 30.04 in 10.0 mi Calm Calm - N/A   Clear
7:15 PM 48.9 °F - 25.2 °F 40% 30.04 in 10.0 mi Calm Calm - N/A   Clear
7:35 PM 46.6 °F - 24.8 °F 43% 30.05 in 10.0 mi West 4.6 mph - N/A   Clear
7:55 PM 44.4 °F 41.2 °F 25.7 °F 48% 30.05 in 10.0 mi West 5.8 mph - N/A   Clear
8:15 PM 44.8 °F 41.0 °F 25.3 °F 47% 30.07 in 10.0 mi West 6.9 mph - N/A   Clear
8:35 PM 43.7 °F 38.1 °F 26.1 °F 50% 30.07 in 10.0 mi WNW 10.4 mph - N/A   Clear
8:55 PM 44.6 °F 40.2 °F 25.5 °F 47% 30.08 in 10.0 mi NW 8.1 mph - N/A   Clear
9:15 PM 44.4 °F 40.0 °F 25.2 °F 47% 30.09 in 10.0 mi NNW 8.1 mph - N/A   Clear
9:35 PM 44.1 °F 39.0 °F 24.8 °F 47% 30.10 in 10.0 mi NNW 9.2 mph - N/A   Clear
9:55 PM 43.2 °F 39.0 °F 24.4 °F 48% 30.11 in 10.0 mi NNW 6.9 mph - N/A   Clear
10:15 PM 42.1 °F 37.1 °F 24.8 °F 50% 30.12 in 10.0 mi NNW 8.1 mph - N/A   Clear
10:35 PM 42.1 °F 37.1 °F 24.8 °F 50% 30.13 in 10.0 mi North 8.1 mph - N/A   Clear
10:55 PM 41.2 °F 36.0 °F 25.3 °F 53% 30.14 in 10.0 mi North 8.1 mph - N/A   Clear
11:15 PM 40.5 °F 35.8 °F 25.5 °F 55% 30.14 in 10.0 mi North 6.9 mph - N/A   Clear
11:35 PM 39.4 °F 34.5 °F 25.7 °F 58% 30.15 in 10.0 mi North 6.9 mph - N/A   Clear
11:55 PM 38.8 °F 33.2 °F 26.2 °F 61% 30.15 in 10.0 mi North 8.1 mph - N/A   Clear